Tracking 35237 objects as of 6-Sep-2026
HD Live streaming from Space Station
objects crossing your sky now

THORAD AGENA D DEB


THORAD AGENA D DEB is no longer on orbit


NORAD ID: 4198
Int'l Code: 1969-082BM
Launch date: September 30, 1969
Source: United States (US)
Launch site: AIR FORCE WESTERN TEST RANGE (AFWTR)
Decay date: 1981-04-08

Note: This is SATELLITE DEBRIS
Your satellite tracking list
Your tracking list is empty




NASA's NSSDC Master Catalog

Two Line Element Set (TLE):
1 04198U 69082 BM 81096.62874987  .22747051 +15049-5 +49486-1 0  9996
2 04198 069.9881 278.3760 0017872 279.1900 080.7187 15.97733296599254
Source of the keplerian elements: AFSPC